Regional Weather Roundup
Issued by NWS

Home | Current Version | Previous Version | Graphics & Text | Print | Product List | Glossary On
Versions: 1 2 3 4 5 6 7 8 9 10 11 12 13 14 15 16 17 18 19 20 21 22 23 24 25 26 27 28 29 30 31 32 33 34 35 36 37 38 39 40 41 42 43 44 45 46 47 48 49 50
000
ASUS45 KBOI 280110
RWRID

IDAHO REGIONAL WEATHER ROUNDUP
NATIONAL WEATHER SERVICE BOISE ID
700 PM MDT MON MAR 27 2017

NOTE: "FAIR" INDICATES FEW OR NO CLOUDS BELOW 12000 FEET
WITH NO SIGNIFICANT WEATHER AND/OR OBSTRUCTIONS TO VISIBILITY

IDZ012-014-280200-
SOUTHWEST IDAHO


CITY           SKY/WX    TMP DP  RH WIND       PRES   REMARKS
BOISE          SUNNY     52  31  44 NW13      30.08R
CALDWELL       SUNNY     53  29  39 W14       30.10R
MOUNTAIN HOME  SUNNY     52  31  44 NW24G33   30.06R
$$

IDZ016-017-280200-
SOUTHCENTRAL IDAHO


CITY           SKY/WX    TMP DP  RH WIND       PRES   REMARKS
BURLEY         PTCLDY    48  25  40 W18G32    29.97R
JEROME         CLEAR     48  30  49 W25G35    30.00R
TWIN FALLS     PTCLDY    46  23  40 W23G36    30.02R
$$

IDZ019>023-280200-
SOUTHEAST IDAHO


CITY           SKY/WX    TMP DP  RH WIND       PRES   REMARKS
IDAHO FALLS    CLOUDY    45  35  68 S9        29.93R
POCATELLO      CLOUDY    49  35  58 SW20      29.94R
REXBURG        CLOUDY    44  35  70 NW7       29.94R
$$

IDZ006-010-011-018-031-032-280200-
CENTRAL IDAHO MOUNTAINS


CITY           SKY/WX    TMP DP  RH WIND       PRES   REMARKS
MCCALL         MOSUNNY   40  26  57 NW7       30.07R
HAILEY         PTCLDY    48  28  46 CALM      29.94R
STANLEY          N/A     36  25  64 NW10      30.03R WCI  28
SALMON         CLOUDY    48  25  40 NE6G16    29.99R
CHALLIS        CLOUDY    46  25  43 NW20      29.98R
$$

IDZ002-004-006-007-026-280200-
NORTHERN IDAHO


CITY           SKY/WX    TMP DP  RH WIND       PRES   REMARKS
LEWISTON       PTSUNNY   56  32  40 W9        30.11R
LOWELL           N/A     42  38  85 W3        30.18R
COEUR D`ALENE  LGT RAIN  47  38  71 W12       30.08R
MULLAN PASS    CLOUDY    30  29  96 VRB3      30.04R
$$



USA.gov is the U.S. government's official web portal to all federal, state and local government web resources and services.